IK2CHZ-3 Weather Reports


Display with metric or nautical units.
time (UTC)temp
F
wind
direction
speed
MPH
gust
MPH
rain 1hr
in
rain 24hr
in
rain mn
in
humidity
%
barometer
mb
20260505211706 58 75 0.0 0.0 0.02 0.27 0.27 90 1012.7
20260505210607 58 75 0.0 0.0 0.05 0.27 0.27 90 1012.8
20260505205506 58 74 0.0 0.0 0.06 0.27 0.27 90 1012.8
20260505204406 58 78 1.0 2.0 0.12 0.27 0.27 90 1012.6
20260505203305 59 82 1.0 2.0 0.12 0.27 0.27 90 1012.7
20260505202206 59 82 0.0 2.0 0.10 0.25 0.25 89 1012.9
20260505201107 59 82 0.0 0.0 0.09 0.24 0.24 88 1012.9
20260505200006 60 82 0.0 0.0 0.07 0.22 0.22 87 1012.7
20260505194907 60 83 0.0 0.0 0.01 0.16 0.16 86 1012.7
20260505193806 60 84 1.0 1.0 0.00 0.15 0.15 86 1012.6
20260505192706 60 76 2.0 3.0 0.00 0.15 0.15 86 1012.5
20260505191605 60 78 1.0 5.0 0.00 0.15 0.15 86 1012.6
20260505190506 60 82 0.0 3.0 0.00 0.15 0.15 86 1012.5
20260505185405 60 83 0.0 2.0 0.00 0.15 0.15 86 1012.4
20260505184306 60 84 1.0 2.0 0.00 0.15 0.15 86 1012.4
20260505183207 60 100 1.0 3.0 0.00 0.15 0.15 86 1012.4
20260505182106 60 83 1.0 2.0 0.00 0.15 0.15 86 1012.3
20260505181006 60 94 1.0 3.0 0.00 0.15 0.15 85 1012.4
20260505175905 60 79 1.0 3.0 0.00 0.15 0.15 85 1012.4
20260505174806 60 69 1.0 2.0 0.00 0.15 0.15 85 1012.3
20260505173705 60 65 0.0 2.0 0.00 0.15 0.15 85 1012.3
20260505172607 60 77 2.0 3.0 0.00 0.15 0.15 85 1012.3
20260505171507 60 36 1.0 2.0 0.00 0.15 0.15 85 1012.3
20260505170406 60 70 1.0 3.0 0.00 0.15 0.15 85 1012.3
20260505165307 60 78 1.0 3.0 0.00 0.15 0.15 85 1012.3
20260505164205 60 88 1.0 2.0 0.00 0.15 0.15 86 1012.4
20260505163107 60 80 2.0 5.0 0.00 0.15 0.15 85 1012.5
20260505162005 60 75 3.0 3.0 0.00 0.15 0.15 85 1012.5
20260505160907 61 110 1.0 3.0 0.00 0.15 0.15 85 1012.6
20260505152505 60 76 2.0 3.0 0.00 0.15 0.15 86 1012.7
20260505151406 60 111 1.0 2.0 0.00 0.15 0.15 86 1012.8
20260505150305 60 80 1.0 6.0 0.00 0.15 0.15 86 1012.8
20260505130206 60 93 3.0 7.0 0.01 0.15 0.15 86 1013.1
20260505124005 60 94 3.0 7.0 0.00 0.14 0.14 84 1013.0
20260505122907 61 109 3.0 7.0 0.00 0.14 0.14 82 1013.1
20260505121807 61 105 2.0 3.0 0.00 0.14 0.14 82 1013.0
20260505120707 61 90 6.0 7.0 0.00 0.14 0.14 83 1013.1
20260505115606 60 75 2.0 5.0 0.00 0.14 0.14 85 1013.1
20260505114507 60 72 1.0 3.0 0.00 0.14 0.14 86 1013.2
20260505113406 60 100 3.0 6.0 0.00 0.14 0.14 85 1013.2
20260505112305 60 103 1.0 3.0 0.00 0.14 0.14 85 1013.2
20260505111207 60 126 1.0 2.0 0.00 0.14 0.14 85 1013.2
20260505110106 60 117 1.0 2.0 0.00 0.14 0.14 85 1013.3
20260505101706 59 146 3.0 3.0 0.00 0.14 0.14 86 1013.4
20260505100605 59 147 3.0 3.0 0.00 0.14 0.14 86 1013.4
20260505095506 59 89 2.0 5.0 0.00 0.14 0.14 88 1013.4
20260505094407 59 90 2.0 5.0 0.00 0.14 0.14 89 1013.3
20260505093306 58 98 0.0 1.0 0.01 0.14 0.14 90 1013.2
20260505092207 57 227 0.0 1.0 0.04 0.14 0.14 91 1013.2
20260505091105 57 230 0.0 0.0 0.04 0.14 0.14 91 1013.3
20260505090006 57 230 0.0 0.0 0.05 0.14 0.14 91 1013.2
20260505084204 57 230 0.0 0.0 0.08 0.14 0.14 90 1013.1
20260505083104 57 230 1.0 2.0 0.10 0.14 0.14 90 1013.1
20260505082004 57 228 0.0 1.0 0.08 0.12 0.12 90 1012.9
20260505080904 57 227 0.0 1.0 0.07 0.10 0.10 90 1012.7
20260505075804 57 227 0.0 0.0 0.08 0.10 0.10 90 1012.9
20260505074703 57 227 0.0 2.0 0.06 0.08 0.08 90 1012.9
20260505073604 57 232 1.0 2.0 0.04 0.05 0.05 90 1012.9
20260505072505 56 232 0.0 2.0 0.03 0.04 0.04 90 1013.3
20260505071404 56 240 2.0 3.0 0.02 0.03 0.03 90 1013.5
20260505070305 56 233 1.0 3.0 0.02 0.03 0.03 90 1013.4
20260505065203 57 235 1.0 3.0 0.02 0.02 0.02 89 1013.4
20260505064104 57 233 2.0 3.0 0.01 0.01 0.01 88 1013.4
20260505063005 57 232 3.0 9.0 0.01 0.01 0.01 87 1013.3
20260505061904 57 223 2.0 5.0 0.01 0.01 0.01 86 1013.2
20260505060805 58 236 2.0 6.0 0.01 0.01 0.01 83 1013.1
20260505055704 59 258 2.0 3.0 0.00 0.00 0.00 81 1013.1
20260505054604 59 241 2.0 3.0 0.00 0.00 0.00 80 1012.8
20260505053504 59 237 2.0 3.0 0.00 0.00 0.00 78 1012.7
20260505052403 60 251 2.0 3.0 0.00 0.00 0.00 76 1012.5
20260505051305 60 276 1.0 3.0 0.00 0.00 0.00 74 1012.3